"read_dt","SO2 (ppb)","flags","PMT voltage (V)","lamp voltage (V)","lamp intensity (Hz)","internal temp (C)","react chamber temp (C)","sample flow (l/min)","pres (mmHg)","SO2 bkg (ppb)","SO2 coefficient"
2014-12-11 00:00:00,4268E-3,5C000000,-0724,0834,12134,028.6,045.4,0.453,747.8,01.17,0.508
2014-12-11 00:01:00,4231E-3,5C000000,-0724,0834,12141,028.6,045.4,0.453,747.8,01.17,0.508
2014-12-11 00:02:00,3887E-3,5C000000,-0724,0835,12259,028.6,045.4,0.452,747.8,01.17,0.508
2014-12-11 00:03:00,3071E-3,5C000000,-0724,0835,12158,028.6,045.5,0.453,747.8,01.17,0.508
2014-12-11 00:04:00,2939E-3,5C000000,-0724,0834,12169,028.6,045.4,0.453,747.8,01.17,0.508
2014-12-11 00:05:00,2702E-3,5C000000,-0724,0835,12189,028.6,045.5,0.452,747.8,01.17,0.508
2014-12-11 00:06:00,2810E-3,5C000000,-0724,0835,12260,028.6,045.4,0.453,747.8,01.17,0.508
2014-12-11 00:07:00,2601E-3,5C000000,-0724,0835,12169,028.6,045.4,0.453,747.8,01.17,0.508
2014-12-11 00:08:00,2722E-3,5C000000,-0724,0835,12224,028.7,045.5,0.453,747.8,01.17,0.508
2014-12-11 00:09:00,2871E-3,5C000000,-0724,0835,12167,028.7,045.5,0.453,747.8,01.17,0.508
2014-12-11 00:10:00,2607E-3,5C000000,-0724,0835,12023,028.6,045.5,0.453,747.8,01.17,0.508
2014-12-11 00:11:00,2666E-3,5C000000,-0724,0835,12147,028.7,045.4,0.453,747.8,01.17,0.508
2014-12-11 00:12:00,2807E-3,5C000000,-0724,0835,12162,028.6,045.4,0.453,747.8,01.17,0.508
2014-12-11 00:13:00,2806E-3,5C000000,-0724,0835,12171,028.7,045.5,0.453,747.8,01.17,0.508
2014-12-11 00:14:00,2739E-3,5C000000,-0724,0834,12217,028.7,045.5,0.453,747.8,01.17,0.508
2014-12-11 00:15:00,2516E-3,5C000000,-0724,0834,12076,028.7,045.5,0.453,747.7,01.17,0.508
2014-12-11 00:16:00,2812E-3,5C000000,-0724,0834,12224,028.7,045.4,0.452,747.7,01.17,0.508
2014-12-11 00:17:00,2873E-3,5C000000,-0724,0835,12233,028.7,045.4,0.453,747.7,01.17,0.508
2014-12-11 00:18:00,2841E-3,5C000000,-0724,0835,12157,028.7,045.5,0.453,747.7,01.17,0.508
2014-12-11 00:19:00,2895E-3,5C000000,-0724,0835,12127,028.7,045.5,0.452,747.7,01.17,0.508
2014-12-11 00:20:00,2701E-3,5C000000,-0724,0834,12311,028.7,045.4,0.453,747.7,01.17,0.508
2014-12-11 00:21:00,2723E-3,5C000000,-0724,0835,12282,028.7,045.4,0.453,747.7,01.17,0.508
2014-12-11 00:22:00,2617E-3,5C000000,-0724,0835,12125,028.7,045.5,0.453,747.7,01.17,0.508
2014-12-11 00:23:00,2671E-3,5C000000,-0724,0835,12164,028.7,045.5,0.453,747.6,01.17,0.508
2014-12-11 00:24:00,2745E-3,5C000000,-0724,0834,12162,028.7,045.5,0.453,747.6,01.17,0.508
2014-12-11 00:25:00,2781E-3,5C000000,-0724,0834,12115,028.7,045.5,0.453,747.6,01.17,0.508
2014-12-11 00:26:00,2746E-3,5C000000,-0724,0834,12149,028.7,045.5,0.453,747.6,01.17,0.508
2014-12-11 00:27:00,2750E-3,5C000000,-0724,0835,12223,028.7,045.4,0.453,747.6,01.17,0.508
2014-12-11 00:28:00,2715E-3,5C000000,-0724,0836,12148,028.7,045.4,0.453,747.6,01.17,0.508
2014-12-11 00:29:00,2934E-3,5C000000,-0724,0836,12032,028.7,045.4,0.453,747.6,01.17,0.508
2014-12-11 00:30:00,2642E-3,5C000000,-0724,0835,12141,028.7,045.4,0.453,747.6,01.17,0.508
2014-12-11 00:31:00,2623E-3,5C000000,-0724,0835,12122,028.7,045.4,0.453,747.6,01.17,0.508
2014-12-11 00:32:00,2617E-3,5C000000,-0724,0834,12207,028.7,045.5,0.453,747.6,01.17,0.508
2014-12-11 00:33:00,2629E-3,5C000000,-0724,0835,12101,028.7,045.4,0.452,747.6,01.17,0.508
2014-12-11 00:34:00,2710E-3,5C000000,-0724,0836,12262,028.7,045.5,0.453,747.6,01.17,0.508
2014-12-11 00:35:00,2747E-3,5C000000,-0724,0835,12186,028.7,045.5,0.452,747.6,01.17,0.508
2014-12-11 00:36:00,2658E-3,5C000000,-0724,0835,12154,028.7,045.5,0.453,747.6,01.17,0.508
2014-12-11 00:37:00,2810E-3,5C000000,-0724,0835,12183,028.7,045.5,0.452,747.5,01.17,0.508
2014-12-11 00:38:00,2780E-3,5C000000,-0724,0835,11981,028.7,045.5,0.453,747.6,01.17,0.508
2014-12-11 00:39:00,2842E-3,5C000000,-0724,0834,12244,028.7,045.5,0.452,747.5,01.17,0.508
2014-12-11 00:40:00,2656E-3,5C000000,-0724,0834,12063,028.7,045.4,0.453,747.5,01.17,0.508
2014-12-11 00:41:00,2708E-3,5C000000,-0724,0834,11911,028.8,045.4,0.452,747.5,01.17,0.508
2014-12-11 00:42:00,2613E-3,5C000000,-0724,0835,11957,028.8,045.4,0.453,747.5,01.17,0.508
2014-12-11 00:43:00,2676E-3,5C000000,-0724,0835,12174,028.7,045.5,0.452,747.5,01.17,0.508
2014-12-11 00:44:00,2615E-3,5C000000,-0724,0835,12291,028.8,045.4,0.453,747.5,01.17,0.508
2014-12-11 00:45:00,2677E-3,5C000000,-0724,0834,12067,028.8,045.5,0.453,747.5,01.17,0.508
2014-12-11 00:46:00,2710E-3,5C000000,-0724,0836,12344,028.8,045.5,0.453,747.5,01.17,0.508
2014-12-11 00:47:00,2703E-3,5C000000,-0724,0835,12246,028.8,045.4,0.452,747.5,01.17,0.508
2014-12-11 00:48:00,2550E-3,5C000000,-0724,0834,12119,028.8,045.5,0.453,747.5,01.17,0.508
2014-12-11 00:49:00,2765E-3,5C000000,-0724,0836,12096,028.8,045.5,0.453,747.5,01.17,0.508
2014-12-11 00:50:00,2771E-3,5C000000,-0724,0834,12125,028.8,045.5,0.453,747.5,01.17,0.508
2014-12-11 00:51:00,2721E-3,5C000000,-0724,0835,12175,028.8,045.4,0.453,747.5,01.17,0.508
2014-12-11 00:52:00,2821E-3,5C000000,-0724,0835,12211,028.8,045.5,0.452,747.5,01.17,0.508
2014-12-11 00:53:00,2670E-3,5C000000,-0724,0835,12038,028.8,045.5,0.453,747.5,01.17,0.508
2014-12-11 00:54:00,2768E-3,5C000000,-0724,0835,12219,028.8,045.5,0.452,747.4,01.17,0.508
2014-12-11 00:55:00,2890E-3,5C000000,-0724,0836,12122,028.8,045.5,0.453,747.4,01.17,0.508
2014-12-11 00:56:00,2900E-3,5C000000,-0724,0835,12284,028.8,045.5,0.452,747.4,01.17,0.508
2014-12-11 00:57:00,2847E-3,5C000000,-0724,0835,12137,028.8,045.4,0.453,747.4,01.17,0.508
2014-12-11 00:58:00,2719E-3,5C000000,-0724,0835,12207,028.8,045.5,0.452,747.4,01.17,0.508
2014-12-11 00:59:00,2804E-3,5C000000,-0724,0835,12153,028.8,045.5,0.453,747.4,01.17,0.508
2014-12-11 01:00:00,2821E-3,5C000000,-0724,0836,12122,028.8,045.5,0.452,747.4,01.17,0.508
2014-12-11 01:01:00,2851E-3,5C000000,-0724,0835,12011,028.8,045.5,0.453,747.4,01.17,0.508
2014-12-11 01:02:00,2785E-3,5C000000,-0724,0835,12267,028.8,045.5,0.453,747.4,01.17,0.508
2014-12-11 01:03:00,2684E-3,5C000000,-0724,0836,12289,028.8,045.5,0.452,747.4,01.17,0.508
2014-12-11 01:04:00,2859E-3,5C000000,-0724,0836,12186,028.8,045.4,0.453,747.4,01.17,0.508
2014-12-11 01:05:00,2861E-3,5C000000,-0724,0835,11921,028.8,045.5,0.452,747.4,01.17,0.508
2014-12-11 01:06:00,2949E-3,5C000000,-0724,0836,12098,028.8,045.5,0.453,747.4,01.17,0.508
2014-12-11 01:07:00,2714E-3,5C000000,-0724,0836,12255,028.8,045.5,0.452,747.5,01.17,0.508
2014-12-11 01:08:00,2663E-3,5C000000,-0724,0834,12198,028.8,045.5,0.453,747.5,01.17,0.508
2014-12-11 01:09:00,2809E-3,5C000000,-0724,0835,12060,028.8,045.5,0.452,747.4,01.17,0.508
2014-12-11 01:10:00,2616E-3,5C000000,-0724,0835,12263,028.8,045.5,0.453,747.4,01.17,0.508
2014-12-11 01:11:00,2486E-3,5C000000,-0724,0835,12108,028.8,045.5,0.452,747.4,01.17,0.508
2014-12-11 01:12:00,2725E-3,5C000000,-0724,0836,12187,028.8,045.5,0.453,747.4,01.17,0.508
2014-12-11 01:13:00,2869E-3,5C000000,-0724,0836,12031,028.8,045.5,0.452,747.4,01.17,0.508
2014-12-11 01:14:00,2817E-3,5C000000,-0724,0835,12237,028.8,045.5,0.452,747.4,01.17,0.508
2014-12-11 01:15:00,2776E-3,5C000000,-0724,0835,12188,028.8,045.5,0.452,747.4,01.17,0.508
2014-12-11 01:16:00,2600E-3,5C000000,-0724,0835,12137,028.8,045.4,0.452,747.4,01.17,0.508
2014-12-11 01:17:00,2727E-3,5C000000,-0724,0836,12135,028.8,045.4,0.453,747.4,01.17,0.508
2014-12-11 01:18:00,2696E-3,5C000000,-0724,0835,12202,028.8,045.5,0.452,747.4,01.17,0.508
2014-12-11 01:19:00,2891E-3,5C000000,-0724,0835,12181,028.8,045.5,0.453,747.4,01.17,0.508
2014-12-11 01:20:00,2926E-3,5C000000,-0724,0836,12263,028.8,045.4,0.452,747.4,01.17,0.508
2014-12-11 01:21:00,2890E-3,5C000000,-0724,0836,12154,028.9,045.5,0.453,747.4,01.17,0.508
2014-12-11 01:22:00,3033E-3,5C000000,-0724,0835,12125,028.9,045.5,0.452,747.4,01.17,0.508
2014-12-11 01:23:00,3071E-3,5C000000,-0724,0835,12192,028.8,045.5,0.453,747.4,01.17,0.508
2014-12-11 01:24:00,3002E-3,5C000000,-0724,0835,12139,028.8,045.5,0.452,747.4,01.17,0.508
2014-12-11 01:25:00,3146E-3,5C000000,-0724,0835,12093,028.9,045.5,0.453,747.4,01.17,0.508
2014-12-11 01:26:00,3047E-3,5C000000,-0724,0834,12148,028.9,045.5,0.452,747.4,01.17,0.508
2014-12-11 01:27:00,3064E-3,5C000000,-0724,0835,12277,028.9,045.5,0.453,747.4,01.17,0.508
2014-12-11 01:28:00,2979E-3,5C000000,-0724,0835,12032,028.9,045.5,0.452,747.4,01.17,0.508
2014-12-11 01:29:00,2910E-3,5C000000,-0724,0836,12269,028.9,045.5,0.453,747.4,01.17,0.508
2014-12-11 01:30:00,3002E-3,5C000000,-0724,0835,12139,028.9,045.4,0.452,747.4,01.17,0.508
2014-12-11 01:31:00,3146E-3,5C000000,-0724,0835,12159,028.9,045.5,0.453,747.4,01.17,0.508
2014-12-11 01:32:00,2969E-3,5C000000,-0724,0834,11923,028.9,045.5,0.452,747.4,01.17,0.508
2014-12-11 01:33:00,2849E-3,5C000000,-0724,0835,12197,028.9,045.5,0.453,747.4,01.17,0.508
2014-12-11 01:34:00,3076E-3,5C000000,-0724,0835,12080,028.9,045.5,0.452,747.4,01.17,0.508
2014-12-11 01:35:00,3109E-3,5C000000,-0724,0834,12190,028.9,045.4,0.453,747.4,01.17,0.508
2014-12-11 01:36:00,2851E-3,5C000000,-0724,0836,12166,028.9,045.5,0.452,747.4,01.17,0.508
2014-12-11 01:37:00,2964E-3,5C000000,-0724,0835,12171,028.9,045.5,0.453,747.5,01.17,0.508
2014-12-11 01:38:00,2846E-3,5C000000,-0724,0835,12033,028.9,045.5,0.452,747.5,01.17,0.508
2014-12-11 01:39:00,2838E-3,5C000000,-0724,0836,12223,028.9,045.4,0.453,747.5,01.17,0.508
2014-12-11 01:40:00,2868E-3,5C000000,-0724,0835,12015,028.9,045.4,0.452,747.5,01.17,0.508
2014-12-11 01:41:00,2965E-3,5C000000,-0724,0835,12131,028.9,045.5,0.452,747.4,01.17,0.508
2014-12-11 01:42:00,2854E-3,5C000000,-0724,0835,12059,028.9,045.5,0.452,747.4,01.17,0.508
2014-12-11 01:43:00,2871E-3,5C000000,-0724,0836,12119,028.9,045.5,0.452,747.5,01.17,0.508
2014-12-11 01:44:00,3123E-3,5C000000,-0724,0835,12119,028.9,045.5,0.453,747.5,01.17,0.508
2014-12-11 01:45:00,3369E-3,5C000000,-0724,0835,12271,028.9,045.5,0.452,747.5,01.17,0.508
2014-12-11 01:46:00,3645E-3,5C000000,-0724,0835,12252,028.9,045.5,0.453,747.4,01.17,0.508
2014-12-11 01:47:00,3801E-3,5C000000,-0724,0835,12066,028.9,045.5,0.452,747.4,01.17,0.508
2014-12-11 01:48:00,3997E-3,5C000000,-0724,0835,12125,028.9,045.5,0.453,747.4,01.17,0.508
2014-12-11 01:49:00,3910E-3,5C000000,-0724,0835,11997,028.9,045.5,0.452,747.4,01.17,0.508
2014-12-11 01:50:00,3803E-3,5C000000,-0724,0834,11953,028.9,045.4,0.453,747.4,01.17,0.508
2014-12-11 01:51:00,3773E-3,5C000000,-0724,0836,12216,028.9,045.5,0.452,747.4,01.17,0.508
2014-12-11 01:52:00,3371E-3,5C000000,-0724,0836,12209,028.9,045.4,0.453,747.4,01.17,0.508
2014-12-11 01:53:00,3446E-3,5C000000,-0724,0836,12183,028.9,045.4,0.452,747.4,01.17,0.508
2014-12-11 01:54:00,3479E-3,5C000000,-0724,0835,12220,029.0,045.5,0.453,747.4,01.17,0.508
2014-12-11 01:55:00,3413E-3,5C000000,-0724,0835,12140,029.0,045.5,0.452,747.4,01.17,0.508
2014-12-11 01:56:00,3419E-3,5C000000,-0724,0835,12095,029.0,045.5,0.452,747.4,01.17,0.508
2014-12-11 01:57:00,3640E-3,5C000000,-0724,0836,12116,029.0,045.5,0.452,747.4,01.17,0.508
2014-12-11 01:58:00,3270E-3,5C000000,-0724,0836,12163,028.9,045.5,0.452,747.4,01.17,0.508
2014-12-11 01:59:00,3690E-3,5C000000,-0724,0834,12148,029.0,045.5,0.453,747.4,01.17,0.508
2014-12-11 02:00:00,3900E-3,5C000000,-0724,0836,11983,029.0,045.5,0.452,747.4,01.17,0.508
2014-12-11 02:01:00,3894E-3,5C000000,-0724,0835,12238,029.0,045.5,0.453,747.4,01.17,0.508
2014-12-11 02:02:00,4490E-3,5C000000,-0724,0835,12169,029.0,045.4,0.452,747.4,01.17,0.508
2014-12-11 02:03:00,4659E-3,5C000000,-0724,0835,11908,029.0,045.5,0.452,747.3,01.17,0.508
2014-12-11 02:04:00,4862E-3,5C000000,-0724,0836,12244,029.0,045.5,0.452,747.4,01.17,0.508
2014-12-11 02:05:00,5062E-3,5C000000,-0724,0836,12229,029.0,045.5,0.452,747.4,01.17,0.508
2014-12-11 02:06:00,4326E-3,5C000000,-0724,0836,12147,029.0,045.5,0.452,747.4,01.17,0.508
2014-12-11 02:07:00,3628E-3,5C000000,-0724,0836,12145,029.0,045.5,0.452,747.4,01.17,0.508
2014-12-11 02:08:00,3342E-3,5C000000,-0724,0836,12148,029.0,045.4,0.453,747.4,01.17,0.508
2014-12-11 02:09:00,3240E-3,5C000000,-0724,0836,12173,029.0,045.4,0.452,747.4,01.17,0.508
2014-12-11 02:10:00,3120E-3,5C000000,-0724,0836,12204,029.0,045.5,0.452,747.3,01.17,0.508
2014-12-11 02:11:00,3062E-3,5C000000,-0724,0835,12227,029.0,045.5,0.452,747.3,01.17,0.508
2014-12-11 02:12:00,3101E-3,5C000000,-0724,0836,12294,029.0,045.4,0.452,747.3,01.17,0.508
2014-12-11 02:13:00,3451E-3,5C000000,-0724,0835,12241,029.0,045.5,0.453,747.3,01.17,0.508
2014-12-11 02:14:00,3526E-3,5C000000,-0724,0835,12168,029.0,045.5,0.452,747.3,01.17,0.508
2014-12-11 02:15:00,3149E-3,5C000000,-0724,0836,12208,029.0,045.5,0.452,747.3,01.17,0.508
2014-12-11 02:16:00,3094E-3,5C000000,-0724,0835,12086,029.0,045.5,0.452,747.3,01.17,0.508
2014-12-11 02:17:00,3379E-3,5C000000,-0724,0835,12123,029.0,045.5,0.452,747.3,01.17,0.508
2014-12-11 02:18:00,3307E-3,5C000000,-0724,0834,12117,029.0,045.5,0.452,747.3,01.17,0.508
2014-12-11 02:19:00,3357E-3,5C000000,-0724,0836,11972,029.0,045.5,0.452,747.3,01.17,0.508
2014-12-11 02:20:00,3320E-3,5C000000,-0724,0835,12128,029.0,045.5,0.452,747.3,01.17,0.508
2014-12-11 02:21:00,3437E-3,5C000000,-0724,0834,12213,029.0,045.5,0.452,747.3,01.17,0.508
2014-12-11 02:22:00,3484E-3,5C000000,-0724,0835,12174,029.0,045.4,0.452,747.3,01.17,0.508
2014-12-11 02:23:00,3310E-3,5C000000,-0724,0835,12083,029.0,045.5,0.452,747.3,01.17,0.508
2014-12-11 02:24:00,3408E-3,5C000000,-0724,0835,12017,029.0,045.5,0.452,747.3,01.17,0.508
2014-12-11 02:25:00,3434E-3,5C000000,-0724,0835,12172,029.0,045.5,0.452,747.3,01.17,0.508
2014-12-11 02:26:00,3463E-3,5C000000,-0724,0835,12360,029.0,045.5,0.452,747.3,01.17,0.508
2014-12-11 02:27:00,3812E-3,5C000000,-0724,0834,12026,029.0,045.5,0.452,747.3,01.17,0.508
2014-12-11 02:28:00,3492E-3,5C000000,-0724,0835,12106,029.0,045.5,0.452,747.3,01.17,0.508
2014-12-11 02:29:00,3722E-3,5C000000,-0724,0835,12125,029.1,045.5,0.452,747.2,01.17,0.508
2014-12-11 02:30:00,3465E-3,5C000000,-0724,0835,12230,029.0,045.5,0.452,747.3,01.17,0.508
2014-12-11 02:31:00,3464E-3,5C000000,-0724,0835,12111,029.0,045.5,0.452,747.3,01.17,0.508
2014-12-11 02:32:00,3504E-3,5C000000,-0724,0835,12227,029.1,045.5,0.452,747.2,01.17,0.508
2014-12-11 02:33:00,3321E-3,5C000000,-0724,0834,12102,029.0,045.5,0.452,747.3,01.17,0.508
2014-12-11 02:34:00,3183E-3,5C000000,-0724,0835,12106,029.1,045.5,0.452,747.3,01.17,0.508
2014-12-11 02:35:00,3163E-3,5C000000,-0724,0836,12181,029.1,045.5,0.452,747.2,01.17,0.508
2014-12-11 02:36:00,2959E-3,5C000000,-0724,0835,12200,029.1,045.5,0.452,747.2,01.17,0.508
2014-12-11 02:37:00,3000E-3,5C000000,-0724,0835,12244,029.1,045.5,0.452,747.2,01.17,0.508
2014-12-11 02:38:00,2942E-3,5C000000,-0724,0835,12007,029.1,045.5,0.452,747.2,01.17,0.508
2014-12-11 02:39:00,3014E-3,5C000000,-0724,0835,12050,029.1,045.5,0.452,747.2,01.17,0.508
2014-12-11 02:40:00,3131E-3,5C000000,-0724,0835,12163,029.1,045.5,0.452,747.2,01.17,0.508
2014-12-11 02:41:00,3011E-3,5C000000,-0724,0835,12180,029.1,045.5,0.452,747.2,01.17,0.508
2014-12-11 02:42:00,2990E-3,5C000000,-0724,0835,11967,029.1,045.5,0.452,747.2,01.17,0.508
2014-12-11 02:43:00,3139E-3,5C000000,-0724,0835,12318,029.1,045.5,0.452,747.2,01.17,0.508
2014-12-11 02:44:00,3014E-3,5C000000,-0724,0836,12083,029.1,045.5,0.452,747.2,01.17,0.508
2014-12-11 02:45:00,2916E-3,5C000000,-0724,0835,12303,029.1,045.5,0.452,747.2,01.17,0.508
2014-12-11 02:46:00,3235E-3,5C000000,-0724,0835,12141,029.1,045.5,0.452,747.2,01.17,0.508
2014-12-11 02:47:00,2936E-3,5C000000,-0724,0834,12263,029.1,045.5,0.452,747.2,01.17,0.508
2014-12-11 02:48:00,2952E-3,5C000000,-0724,0835,12181,029.1,045.5,0.452,747.2,01.17,0.508
2014-12-11 02:49:00,2949E-3,5C000000,-0724,0835,12086,029.1,045.5,0.452,747.2,01.17,0.508
2014-12-11 02:50:00,2960E-3,5C000000,-0724,0834,12148,029.1,045.5,0.452,747.2,01.17,0.508
2014-12-11 02:51:00,2971E-3,5C000000,-0724,0835,12219,029.1,045.5,0.452,747.2,01.17,0.508
2014-12-11 02:52:00,2809E-3,5C000000,-0724,0835,12028,029.1,045.5,0.452,747.2,01.17,0.508
2014-12-11 02:53:00,2900E-3,5C000000,-0724,0835,12201,029.1,045.5,0.452,747.1,01.17,0.508
2014-12-11 02:54:00,3039E-3,5C000000,-0724,0835,12188,029.1,045.5,0.452,747.1,01.17,0.508
2014-12-11 02:55:00,3032E-3,5C000000,-0724,0835,11933,029.1,045.5,0.452,747.2,01.17,0.508
2014-12-11 02:56:00,2909E-3,5C000000,-0724,0835,12316,029.1,045.5,0.452,747.2,01.17,0.508
2014-12-11 02:57:00,2969E-3,5C000000,-0724,0834,12238,029.1,045.5,0.452,747.1,01.17,0.508
2014-12-11 02:58:00,2917E-3,5C000000,-0724,0835,12280,029.1,045.5,0.452,747.1,01.17,0.508
2014-12-11 02:59:00,2881E-3,5C000000,-0724,0836,12305,029.1,045.5,0.452,747.1,01.17,0.508
2014-12-11 03:00:00,2941E-3,5C000000,-0724,0836,12096,029.1,045.5,0.452,747.1,01.17,0.508
2014-12-11 03:01:00,3015E-3,5C000000,-0724,0835,12154,029.1,045.5,0.452,747.1,01.17,0.508
2014-12-11 03:02:00,2812E-3,5C000000,-0724,0835,12154,029.1,045.5,0.452,747.1,01.17,0.508
2014-12-11 03:03:00,2886E-3,5C000000,-0724,0835,12064,029.1,045.5,0.452,747.2,01.17,0.508
2014-12-11 03:04:00,2952E-3,5C000000,-0724,0834,12154,029.1,045.5,0.452,747.2,01.17,0.508
2014-12-11 03:05:00,2866E-3,5C000000,-0724,0836,12147,029.1,045.5,0.452,747.2,01.17,0.508
2014-12-11 03:06:00,2760E-3,5C000000,-0724,0835,12242,029.1,045.5,0.452,747.2,01.17,0.508
2014-12-11 03:07:00,2908E-3,5C000000,-0724,0835,11973,029.1,045.5,0.452,747.2,01.17,0.508
2014-12-11 03:08:00,2733E-3,5C000000,-0724,0835,12113,029.1,045.4,0.452,747.2,01.17,0.508
2014-12-11 03:09:00,2760E-3,5C000000,-0724,0834,12138,029.1,045.5,0.452,747.2,01.17,0.508
2014-12-11 03:10:00,2685E-3,5C000000,-0724,0835,12222,029.1,045.5,0.452,747.2,01.17,0.508
2014-12-11 03:11:00,2803E-3,5C000000,-0724,0835,11941,029.1,045.5,0.452,747.2,01.17,0.508
2014-12-11 03:12:00,2917E-3,5C000000,-0724,0835,11962,029.1,045.5,0.452,747.2,01.17,0.508
2014-12-11 03:13:00,2614E-3,5C000000,-0724,0835,12224,029.1,045.5,0.452,747.2,01.17,0.508
2014-12-11 03:14:00,2776E-3,5C000000,-0724,0836,12164,029.1,045.5,0.452,747.2,01.17,0.508
2014-12-11 03:15:00,2712E-3,5C000000,-0724,0835,12038,029.2,045.5,0.452,747.2,01.17,0.508
2014-12-11 03:16:00,2642E-3,5C000000,-0724,0835,12180,029.1,045.5,0.452,747.2,01.17,0.508
2014-12-11 03:17:00,2837E-3,5C000000,-0724,0835,12161,029.1,045.5,0.452,747.2,01.17,0.508
2014-12-11 03:18:00,2900E-3,5C000000,-0724,0835,12110,029.2,045.5,0.452,747.2,01.17,0.508
2014-12-11 03:19:00,2837E-3,5C000000,-0724,0836,12109,029.1,045.5,0.452,747.2,01.17,0.508
2014-12-11 03:20:00,2733E-3,5C000000,-0724,0835,12012,029.1,045.5,0.452,747.2,01.17,0.508
2014-12-11 03:21:00,2745E-3,5C000000,-0724,0834,12243,029.1,045.5,0.452,747.1,01.17,0.508
2014-12-11 03:22:00,2805E-3,5C000000,-0724,0835,12205,029.1,045.5,0.452,747.2,01.17,0.508
2014-12-11 03:23:00,2737E-3,5C000000,-0724,0835,12033,029.2,045.5,0.452,747.1,01.17,0.508
2014-12-11 03:24:00,2760E-3,5C000000,-0724,0835,12125,029.1,045.5,0.452,747.1,01.17,0.508
2014-12-11 03:25:00,2836E-3,5C000000,-0724,0835,12178,029.2,045.5,0.452,747.1,01.17,0.508
2014-12-11 03:26:00,2811E-3,5C000000,-0724,0836,12077,029.1,045.5,0.452,747.1,01.17,0.508
2014-12-11 03:27:00,2783E-3,5C000000,-0724,0835,12092,029.2,045.5,0.452,747.1,01.17,0.508
2014-12-11 03:28:00,2749E-3,5C000000,-0724,0835,12252,029.2,045.5,0.452,747.1,01.17,0.508
2014-12-11 03:29:00,2791E-3,5C000000,-0724,0835,12039,029.1,045.5,0.452,747.1,01.17,0.508
2014-12-11 03:30:00,2711E-3,5C000000,-0724,0836,12195,029.1,045.5,0.452,747.0,01.17,0.508
2014-12-11 03:31:00,2718E-3,5C000000,-0724,0836,12046,029.1,045.5,0.452,747.1,01.17,0.508
2014-12-11 03:32:00,2663E-3,5C000000,-0724,0835,12244,029.2,045.5,0.452,747.0,01.17,0.508
2014-12-11 03:33:00,2587E-3,5C000000,-0724,0836,12178,029.2,045.5,0.452,747.1,01.17,0.508
2014-12-11 03:34:00,2657E-3,5C000000,-0724,0834,12160,029.2,045.5,0.452,747.1,01.17,0.508
2014-12-11 03:35:00,2441E-3,5C000000,-0724,0836,12049,029.1,045.5,0.452,747.1,01.17,0.508
2014-12-11 03:36:00,2619E-3,5C000000,-0724,0835,12199,029.2,045.5,0.452,747.1,01.17,0.508
2014-12-11 03:37:00,2811E-3,5C000000,-0724,0835,12142,029.2,045.5,0.452,747.1,01.17,0.508
2014-12-11 03:38:00,2593E-3,5C000000,-0724,0835,11989,029.1,045.5,0.452,747.1,01.17,0.508
2014-12-11 03:39:00,2819E-3,5C000000,-0724,0835,12339,029.1,045.5,0.452,747.1,01.17,0.508
2014-12-11 03:40:00,2752E-3,5C000000,-0724,0836,12069,029.2,045.5,0.452,747.1,01.17,0.508
2014-12-11 03:41:00,2739E-3,5C000000,-0724,0835,12283,029.2,045.5,0.452,747.1,01.17,0.508
2014-12-11 03:42:00,2630E-3,5C000000,-0724,0836,11951,029.2,045.5,0.452,747.1,01.17,0.508
2014-12-11 03:43:00,2552E-3,5C000000,-0724,0836,12298,029.2,045.5,0.452,747.1,01.17,0.508
2014-12-11 03:44:00,2399E-3,5C000000,-0724,0835,11996,029.2,045.5,0.452,747.1,01.17,0.508
2014-12-11 03:45:00,2556E-3,5C000000,-0724,0835,12237,029.2,045.5,0.452,747.1,01.17,0.508
2014-12-11 03:46:00,2613E-3,5C000000,-0724,0836,12139,029.2,045.5,0.452,747.1,01.17,0.508
2014-12-11 03:47:00,2597E-3,5C000000,-0724,0836,12210,029.2,045.5,0.452,747.1,01.17,0.508
2014-12-11 03:48:00,2581E-3,5C000000,-0724,0835,12105,029.2,045.5,0.452,747.1,01.17,0.508
2014-12-11 03:49:00,2522E-3,5C000000,-0724,0835,12123,029.2,045.5,0.452,747.0,01.17,0.508
2014-12-11 03:50:00,2539E-3,5C000000,-0724,0835,12151,029.2,045.5,0.452,747.0,01.17,0.508
2014-12-11 03:51:00,2478E-3,5C000000,-0724,0835,12163,029.2,045.5,0.452,747.0,01.17,0.508
2014-12-11 03:52:00,2509E-3,5C000000,-0724,0835,12205,029.2,045.5,0.452,747.0,01.17,0.508
2014-12-11 03:53:00,2201E-3,5C000000,-0724,0835,12153,029.2,045.5,0.452,747.0,01.17,0.508
2014-12-11 03:54:00,2521E-3,5C000000,-0724,0834,12042,029.2,045.5,0.452,747.0,01.17,0.508
2014-12-11 03:55:00,2290E-3,5C000000,-0724,0836,12237,029.2,045.5,0.452,747.0,01.17,0.508
2014-12-11 03:56:00,2420E-3,5C000000,-0724,0835,12070,029.2,045.5,0.452,747.0,01.17,0.508
2014-12-11 03:57:00,2509E-3,5C000000,-0724,0835,12243,029.2,045.5,0.452,747.0,01.17,0.508
2014-12-11 03:58:00,2566E-3,5C000000,-0724,0836,12161,029.2,045.5,0.452,747.0,01.17,0.508
2014-12-11 03:59:00,2332E-3,5C000000,-0724,0835,12066,029.2,045.5,0.452,747.0,01.17,0.508
2014-12-11 04:00:00,2241E-3,5C000000,-0724,0836,12112,029.2,045.5,0.452,747.0,01.17,0.508
2014-12-11 04:01:00,2572E-3,5C000000,-0724,0835,12195,029.2,045.5,0.452,747.0,01.17,0.508
2014-12-11 04:02:00,2634E-3,5C000000,-0724,0835,12126,029.2,045.5,0.452,747.0,01.17,0.508
2014-12-11 04:03:00,2538E-3,5C000000,-0724,0834,12155,029.2,045.5,0.452,747.0,01.17,0.508
2014-12-11 04:04:00,2711E-3,5C000000,-0724,0835,12327,029.2,045.5,0.452,747.0,01.17,0.508
2014-12-11 04:05:00,2751E-3,5C000000,-0724,0834,12192,029.2,045.5,0.452,747.0,01.17,0.508
2014-12-11 04:06:00,2916E-3,5C000000,-0724,0834,12113,029.2,045.5,0.452,747.0,01.17,0.508
2014-12-11 04:07:00,2897E-3,5C000000,-0724,0837,12199,029.2,045.5,0.452,747.0,01.17,0.508
2014-12-11 04:08:00,3041E-3,5C000000,-0724,0834,12153,029.2,045.5,0.452,747.0,01.17,0.508
2014-12-11 04:09:00,2834E-3,5C000000,-0724,0835,12173,029.2,045.5,0.452,747.0,01.17,0.508
2014-12-11 04:10:00,2912E-3,5C000000,-0724,0835,12322,029.2,045.5,0.452,747.0,01.17,0.508
2014-12-11 04:11:00,3047E-3,5C000000,-0724,0834,12008,029.2,045.5,0.452,747.0,01.17,0.508
2014-12-11 04:12:00,3134E-3,5C000000,-0724,0834,11978,029.2,045.5,0.452,747.0,01.17,0.508
2014-12-11 04:13:00,2960E-3,5C000000,-0724,0835,12218,029.2,045.5,0.452,747.0,01.17,0.508
2014-12-11 04:14:00,3030E-3,5C000000,-0724,0835,12074,029.2,045.5,0.452,747.0,01.17,0.508
2014-12-11 04:15:00,3228E-3,5C000000,-0724,0835,12091,029.2,045.5,0.452,746.9,01.17,0.508
2014-12-11 04:16:00,3003E-3,5C000000,-0724,0835,12027,029.2,045.5,0.452,746.9,01.17,0.508
2014-12-11 04:17:00,3003E-3,5C000000,-0724,0835,12212,029.2,045.5,0.452,746.9,01.17,0.508
2014-12-11 04:18:00,3050E-3,5C000000,-0724,0836,12154,029.2,045.5,0.452,746.9,01.17,0.508
2014-12-11 04:19:00,3216E-3,5C000000,-0724,0834,12182,029.2,045.5,0.452,746.9,01.17,0.508
2014-12-11 04:20:00,3225E-3,5C000000,-0724,0835,11886,029.2,045.5,0.452,746.9,01.17,0.508